Powrót do katalogu

QIANFAN-86

AktywnyŁącznośćPO
NORAD 63172·PAYLOAD·🇨🇳 China

Wystrzelony Mar 11, 2025 z Wenchang Space Launch Site

Loading…

Następne Przeloty (najbliższe 24 godziny)

TLE

ŚwieżeSource: Space-Track

Epoka: Sep 14, 2026, 21:14 UTC

1 63172U 25046P   26257.88480950  .00000067  00000-0  85057-4 0  9992
2 63172  88.9653 291.1206 0012806  60.3006 299.9418 13.51025311 84830

Śledź QIANFAN-86 w czasie rzeczywistym z AllMySat

Download on the App Store